Probability
0 0 0 0 0 0 0 0 0 0 0 0 0 0 0 0 0 0 0 0 0 6 94 100 97 94 90 84 87 94 97 97 100 100 100 100 100 100 100 100 100 90 77 39 26 16 13 26 42
0 0 0 0 0 0 0 0 0 0 0 0 0 0 0 0 0 0 0 0 0 26 87 65 97 90 84 84 87 90 97 97 100 100 100 100 100 100 100 100 94 97 87 77 61 23 13 13 13
0 0 0 0 0 0 0 0 0 0 0 0 0 0 0 0 0 0 0 0 0 35 65 55 97 94 87 84 90 87 100 100 97 100 100 100 100 100 97 87 87 81 65 68 68 42 32 23 19
0 0 0 0 0 0 0 0 0 0 0 0 0 0 0 0 0 0 0 0 6 48 55 61 100 100 97 90 90 94 97 97 100 100 100 100 100 97 81 74 77 71 65 58 71 71 71 61 48
0 0 0 0 0 0 0 0 0 0 0 0 0 0 0 0 0 0 0 0 6 55 52 68 100 100 100 97 94 94 97 97 100 100 100 100 100 94 84 84 90 90 90 87 87 87 90 94 97
0 0 0 0 0 0 0 0 0 0 0 6 0 0 0 0 0 0 0 0 10 55 61 87 100 100 100 100 100 100 100 100 100 100 100 100 100 100 100 94 94 94 94 94 94 94 97 97 97
0 0 0 0 0 0 0 0 0 0 0 6 0 0 0 0 0 0 0 0 6 55 84 100 100 100 100 100 100 100 100 100 100 100 100 100 100 100 100 100 97 97 97 97 97 97 100 100 100
0 0 0 0 0 0 0 0 0 0 0 16 0 0 0 0 0 0 0 0 19 68 90 100 100 100 100 100 100 100 100 100 100 100 100 100 100 100 100 100 100 100 100 100 100 100 100 100 100
0 0 0 0 0 0 0 0 0 0 0 16 3 0 0 0 0 0 0 0 26 71 90 100 100 100 100 100 100 100 100 100 100 100 100 100 100 100 100 100 100 100 100 100 100 100 100 100 100
0 0 0 0 0 0 0 0 0 0 3 0 3 0 0 0 0 0 0 0 0 23 84 100 97 100 100 100 100 100 100 100 100 100 100 100 100 97 100 100 100 100 100 100 100 100 100 100 100
0 0 0 0 0 0 0 0 0 0 0 0 0 0 0 0 0 0 0 0 0 0 19 87 94 97 100 100 97 100 100 100 100 100 97 97 97 94 97 97 97 97 100 100 100 100 100 100 100
0 0 0 0 0 0 0 0 0 0 0 0 0 0 0 0 3 6 0 0 0 0 0 26 87 90 90 90 74 81 97 97 97 100 97 90 90 84 87 90 74 55 55 68 84 94 94 100 100
0 0 0 0 0 0 0 0 0 0 0 0 0 6 10 3 10 10 10 3 3 0 0 3 55 81 87 81 52 58 74 90 90 94 94 94 94 81 65 52 48 45 42 52 68 71 87 90 87
0 0 0 0 0 0 0 0 0 0 0 0 0 3 10 13 6 6 10 23 26 16 6 3 16 29 48 71 48 32 16 29 26 32 45 61 90 77 26 10 13 23 39 45 74 74 84 87 87
0 0 0 0 0 0 0 0 0 0 3 6 3 6 16 10 10 13 19 26 35 35 19 6 6 19 19 32 23 6 3 3 6 13 6 6 23 32 23 10 13 23 35 55 71 71 68 68 61
0 0 0 0 0 0 0 0 0 3 10 19 29 39 35 32 42 42 39 42 48 48 26 26 32 13 10 13 6 10 6 0 0 3 6 10 13 6 10 10 13 26 42 55 58 61 61 61 61
0 0 0 0 0 0 0 0 0 6 23 45 61 65 61 65 81 81 68 65 77 74 68 58 55 39 29 19 16 19 42 58 65 68 68 71 74 68 39 39 48 55 55 71 58 52 45 39 39
0 0 0 0 0 0 0 0 3 19 52 61 74 77 81 84 84 84 90 84 81 77 74 71 68 68 55 52 55 68 65 65 71 74 77 81 84 90 84 81 87 84 81 81 68 55 48 35 32
0 0 0 0 0 0 0 0 0 6 45 55 58 65 77 68 68 71 77 81 77 74 65 58 61 65 58 55 55 71 55 52 45 45 65 65 58 68 68 74 84 84 81 84 71 61 52 48 39
0 0 0 0 0 0 0 0 0 6 26 32 48 58 61 58 58 61 58 61 61 55 52 58 61 61 65 58 45 45 45 29 29 29 23 23 26 39 45 45 45 52 68 65 71 55 52 42 39
0 0 0 0 0 0 0 0 0 3 6 23 26 45 52 55 55 42 48 45 52 52 52 52 48 52 45 32 23 29 10 3 3 3 3 3 6 6 13 10 13 23 35 45 52 52 42 42 39
0 0 0 0 0 0 0 0 0 0 6 19 29 32 45 45 35 32 35 39 32 23 29 32 26 26 26 23 19 13 3 0 0 0 0 0 0 0 0 6 6 10 23 29 35 42 42 42 39
0 0 0 0 0 0 0 0 0 0 6 13 23 32 35 32 19 19 19 16 16 10 13 6 13 19 16 19 16 3 0 0 0 0 0 0 0 0 0 0 0 6 10 13 19 23 23 32 39
0 0 0 0 0 0 0 0 0 0 0 3 13 19 19 19 19 16 13 10 6 0 0 3 10 10 6 10 10 6 0 0 0 0 0 0 0 0 0 0 0 0 6 6 13 10 10 10 10
0 0 0 0 0 0 0 0 0 0 0 0 6 10 13 3 0 3 0 0 0 0 0 0 6 6 6 3 3 3 0 0 0 0 0 0 0 0 0 0 0 0 3 3 3 0 0 0 0
0 0 0 0 0 0 0 0 0 0 0 0 0 0 0 0 0 0 0 0 0 0 0 0 0 3 0 0 0 0 0 0 0 0 0 0 0 0 0 0 0 0 0 0 0 0 3 6 6
0 0 0 0 0 0 0 0 0 0 0 0 0 0 0 0 0 0 0 0 0 0 0 0 0 0 0 0 0 0 0 0 0 0 0 0 0 0 0 0 0 0 0 0 0 0 0 3 3
0 0 0 0 0 0 0 0 0 0 0 0 0 0 0 0 0 0 0 0 0 0 0 0 0 0 0 0 0 0 0 0 0 0 0 0 0 0 0 0 0 0 0 0 0 0 0 0 0
0 0 0 0 0 0 0 0 0 0 0 0 0 0 0 0 0 0 0 0 0 0 0 0 0 0 0 0 0 0 0 0 0 0 0 0 0 0 0 0 0 0 0 0 0 0 0 0 0
0 0 0 0 0 0 0 0 0 0 0 0 0 0 0 0 0 0 0 0 0 0 0 0 0 0 0 0 0 0 0 0 0 0 0 0 0 0 0 0 0 0 0 0 0 0 0 0 0
Height
5918 5919 5920 5920 5920 5919 5918 5917 5916 5916 5917 5917 5917 5918 5918 5919 5920 5922 5919 5917 5916 5916 5916 5915 5915 5913 5912 5911 5910 5910 5909 5908 5908 5908 5907 5907 5907 5906 5906 5905 5904 5903 5902 5901 5900 5899 5898 5897 5895
5919 5920 5921 5922 5921 5920 5920 5919 5918 5918 5918 5918 5918 5918 5919 5919 5920 5920 5919 5918 5917 5916 5916 5916 5915 5913 5912 5911 5911 5910 5909 5909 5908 5908 5908 5907 5907 5906 5906 5905 5904 5903 5902 5901 5900 5899 5898 5897 5896
5920 5921 5922 5922 5921 5921 5921 5921 5920 5920 5920 5919 5919 5919 5920 5920 5920 5920 5919 5918 5917 5917 5916 5915 5914 5913 5912 5911 5911 5910 5909 5909 5908 5908 5907 5907 5907 5906 5905 5905 5904 5903 5902 5901 5900 5899 5898 5897 5896
5920 5921 5922 5922 5921 5922 5922 5922 5921 5921 5921 5920 5920 5920 5920 5920 5920 5919 5919 5918 5917 5917 5916 5915 5914 5913 5912 5911 5910 5909 5909 5908 5908 5907 5907 5906 5906 5905 5905 5904 5903 5902 5901 5901 5900 5899 5898 5897 5896
5919 5920 5921 5921 5921 5922 5921 5922 5922 5922 5921 5921 5921 5921 5920 5920 5920 5919 5918 5918 5917 5917 5916 5915 5913 5912 5911 5910 5909 5909 5908 5907 5907 5906 5906 5905 5905 5904 5903 5903 5902 5901 5900 5899 5898 5897 5897 5896 5895
5918 5918 5919 5919 5920 5921 5921 5921 5921 5921 5921 5921 5921 5921 5921 5920 5920 5919 5918 5918 5917 5916 5915 5914 5913 5912 5911 5910 5909 5908 5907 5906 5906 5905 5904 5904 5903 5903 5902 5901 5901 5900 5899 5898 5897 5896 5895 5894 5893
5916 5916 5917 5918 5919 5920 5921 5921 5921 5921 5921 5921 5921 5921 5920 5920 5920 5919 5918 5917 5916 5915 5914 5913 5912 5911 5910 5909 5908 5907 5906 5905 5905 5904 5903 5903 5902 5901 5901 5900 5899 5898 5897 5896 5895 5894 5893 5892 5891
5913 5915 5915 5917 5918 5919 5920 5920 5920 5920 5920 5920 5920 5920 5920 5919 5919 5918 5917 5916 5915 5914 5913 5912 5911 5910 5909 5908 5907 5906 5905 5904 5904 5903 5902 5901 5900 5899 5899 5898 5897 5896 5895 5894 5893 5892 5891 5890 5889
5911 5913 5912 5914 5916 5918 5918 5918 5919 5919 5919 5919 5919 5919 5919 5918 5917 5916 5915 5914 5913 5912 5911 5910 5909 5908 5907 5906 5906 5905 5904 5903 5902 5901 5900 5899 5898 5897 5896 5895 5894 5893 5893 5892 5891 5889 5888 5887 5886
5908 5909 5910 5913 5914 5915 5916 5916 5916 5916 5917 5917 5917 5918 5917 5917 5915 5914 5913 5912 5911 5910 5908 5907 5906 5905 5904 5903 5902 5901 5901 5900 5899 5898 5897 5896 5895 5894 5893 5892 5891 5890 5889 5888 5887 5886 5885 5884 5882
5906 5907 5907 5910 5912 5913 5913 5913 5913 5913 5914 5914 5915 5915 5915 5914 5913 5912 5911 5910 5908 5906 5905 5903 5901 5900 5899 5898 5897 5896 5896 5895 5895 5894 5893 5892 5891 5890 5889 5887 5886 5885 5884 5883 5883 5882 5880 5879 5878
5904 5904 5905 5908 5909 5910 5910 5910 5911 5911 5911 5911 5912 5912 5912 5911 5910 5909 5908 5906 5904 5902 5900 5898 5897 5895 5894 5892 5891 5891 5890 5889 5889 5888 5887 5886 5885 5884 5883 5882 5880 5879 5878 5877 5877 5876 5875 5874 5873
5901 5902 5903 5905 5906 5907 5907 5907 5908 5908 5907 5908 5908 5908 5908 5907 5906 5905 5904 5902 5900 5898 5896 5894 5892 5890 5888 5887 5885 5884 5883 5883 5882 5881 5880 5879 5878 5877 5876 5875 5874 5872 5871 5870 5869 5868 5867 5867 5866
5897 5900 5901 5901 5901 5902 5903 5904 5905 5905 5904 5904 5904 5904 5903 5902 5901 5900 5899 5897 5895 5893 5890 5888 5886 5885 5883 5881 5879 5878 5876 5875 5874 5873 5871 5870 5869 5868 5867 5867 5866 5865 5863 5862 5861 5860 5859 5857 5857
5893 5895 5896 5895 5896 5898 5900 5901 5901 5900 5900 5900 5900 5899 5898 5896 5895 5894 5892 5891 5889 5887 5885 5883 5881 5879 5877 5875 5873 5871 5869 5867 5866 5864 5862 5860 5859 5858 5857 5857 5857 5856 5854 5852 5851 5851 5849 5848 5847
5887 5889 5890 5890 5892 5893 5896 5896 5896 5895 5895 5895 5894 5893 5892 5891 5889 5888 5886 5884 5882 5880 5878 5876 5874 5872 5870 5868 5866 5864 5862 5860 5858 5856 5854 5852 5850 5849 5847 5847 5847 5847 5845 5844 5843 5842 5840 5839 5838
5881 5883 5884 5885 5886 5888 5889 5889 5890 5890 5890 5889 5888 5887 5886 5885 5883 5882 5880 5878 5876 5874 5871 5869 5866 5865 5863 5861 5859 5857 5855 5853 5851 5848 5846 5844 5842 5840 5839 5838 5838 5838 5837 5836 5835 5833 5831 5830 5829
5875 5876 5878 5879 5880 5881 5881 5882 5882 5883 5883 5883 5882 5881 5880 5879 5878 5876 5874 5872 5870 5867 5864 5862 5860 5858 5856 5854 5852 5850 5848 5845 5843 5840 5838 5836 5834 5832 5830 5830 5829 5828 5828 5827 5826 5824 5823 5822 5821
5869 5871 5872 5874 5874 5875 5875 5875 5875 5876 5876 5876 5875 5875 5875 5874 5872 5871 5868 5866 5863 5861 5858 5855 5852 5850 5848 5846 5844 5842 5839 5836 5834 5832 5829 5827 5825 5823 5821 5820 5819 5818 5818 5818 5817 5815 5815 5814 5812
5865 5866 5867 5868 5868 5869 5869 5869 5869 5869 5869 5869 5869 5869 5869 5868 5867 5865 5863 5861 5858 5855 5851 5847 5845 5843 5841 5838 5836 5833 5830 5827 5825 5822 5820 5818 5816 5814 5812 5810 5809 5808 5807 5807 5807 5805 5804 5805 5804
5861 5862 5862 5863 5863 5863 5864 5865 5865 5864 5863 5863 5863 5863 5863 5862 5860 5859 5857 5855 5852 5849 5846 5842 5839 5836 5834 5831 5828 5825 5822 5818 5815 5813 5811 5808 5806 5804 5802 5801 5799 5798 5797 5796 5796 5795 5794 5795 5795
5859 5859 5859 5859 5859 5859 5860 5859 5860 5859 5858 5858 5858 5857 5857 5856 5854 5852 5850 5848 5846 5843 5840 5836 5833 5830 5828 5824 5821 5818 5815 5811 5807 5804 5801 5798 5795 5794 5792 5791 5789 5788 5787 5786 5786 5785 5784 5784 5785
5856 5856 5855 5855 5855 5855 5854 5854 5855 5854 5853 5853 5852 5852 5851 5850 5848 5846 5844 5842 5839 5837 5833 5830 5828 5825 5822 5819 5815 5812 5808 5804 5800 5796 5792 5788 5785 5782 5780 5779 5778 5777 5776 5776 5775 5775 5774 5774 5774
5853 5853 5852 5851 5851 5850 5850 5850 5850 5849 5849 5848 5848 5847 5846 5845 5843 5841 5838 5836 5834 5831 5828 5825 5822 5819 5816 5813 5809 5806 5802 5798 5793 5789 5784 5779 5775 5771 5769 5767 5766 5765 5765 5764 5764 5764 5764 5764 5764
5851 5851 5850 5848 5847 5847 5846 5846 5847 5845 5844 5843 5843 5842 5840 5839 5837 5835 5833 5830 5828 5825 5822 5819 5816 5813 5810 5806 5802 5798 5794 5790 5785 5781 5776 5771 5766 5762 5758 5755 5754 5753 5752 5752 5752 5753 5753 5753 5753
5849 5849 5848 5847 5846 5845 5843 5843 5843 5840 5839 5838 5837 5836 5834 5833 5831 5829 5826 5824 5821 5818 5815 5812 5809 5805 5802 5798 5794 5790 5786 5782 5777 5773 5768 5763 5758 5753 5749 5745 5743 5741 5740 5740 5740 5741 5741 5741 5742
5846 5846 5845 5844 5842 5841 5840 5839 5838 5836 5835 5833 5832 5830 5828 5826 5824 5822 5819 5816 5813 5810 5806 5803 5800 5796 5793 5789 5785 5782 5778 5774 5769 5764 5759 5754 5749 5744 5740 5736 5733 5731 5729 5728 5728 5728 5729 5729 5730
5844 5843 5842 5840 5838 5837 5836 5834 5833 5832 5830 5828 5826 5823 5820 5818 5815 5812 5809 5806 5803 5800 5796 5793 5789 5786 5783 5779 5776 5773 5769 5765 5761 5756 5751 5746 5741 5736 5732 5728 5724 5721 5719 5717 5717 5716 5717 5717 5718
5841 5840 5838 5836 5835 5833 5830 5831 5828 5827 5824 5821 5818 5815 5812 5809 5805 5802 5799 5796 5793 5789 5786 5783 5780 5777 5773 5770 5767 5763 5760 5756 5752 5748 5743 5738 5733 5728 5724 5719 5715 5712 5709 5707 5706 5705 5705 5706 5707
5838 5836 5835 5833 5831 5828 5825 5825 5822 5819 5816 5813 5810 5806 5803 5799 5795 5792 5789 5785 5782 5779 5775 5772 5769 5766 5763 5760 5757 5753 5750 5747 5743 5739 5735 5730 5725 5721 5716 5712 5707 5704 5701 5699 5697 5696 5695 5696 5697
Wind_Speed
6 4 3 3 3 4 6 8 10 12 12 11 11 11 11 9 7 6 7 8 9 9 10 10 11 12 12 12 12 12 13 14 14 13 12 12 11 11 12 13 14 16 17 17 16 15 14 14 13
6 4 2 1 2 3 5 7 10 10 10 9 10 10 10 10 8 7 7 8 8 9 9 10 11 11 11 11 11 12 12 13 13 12 11 11 10 10 11 12 13 14 15 15 15 14 13 12 12
7 6 4 2 0 2 4 6 8 8 7 7 7 8 8 8 8 8 8 8 8 8 8 9 9 10 10 10 10 11 11 12 12 12 10 10 10 10 10 11 12 13 14 14 14 13 12 11 10
9 8 6 4 1 2 3 5 7 6 5 5 5 6 8 8 9 9 9 9 9 9 9 9 9 9 9 10 10 10 10 11 11 11 11 10 10 10 10 11 11 12 13 13 13 13 12 10 9
12 11 9 6 4 4 4 2 3 3 4 4 5 6 7 8 10 10 10 10 10 11 11 10 10 10 9 9 9 10 10 10 11 11 11 10 10 10 10 10 11 12 12 13 13 13 12 11 10
14 14 12 9 7 7 6 4 2 1 3 4 4 5 7 8 9 9 10 10 10 11 11 11 11 11 10 10 10 10 11 11 11 11 11 10 10 10 10 10 11 11 12 12 12 12 13 12 11
17 16 15 12 11 10 9 7 5 2 2 4 5 6 8 8 8 9 9 8 9 10 11 11 12 12 11 11 11 11 12 12 12 12 12 11 11 11 11 11 11 12 12 12 13 12 12 12 12
19 19 18 15 14 12 10 10 8 4 2 3 5 7 8 9 9 10 10 10 10 10 10 11 11 12 13 13 13 13 14 14 14 14 13 13 13 13 13 13 14 14 14 14 14 14 14 13 13
20 21 19 17 14 12 11 11 10 7 4 4 6 8 9 11 12 12 12 12 12 12 12 12 12 14 15 16 16 16 17 17 17 17 16 16 16 17 17 17 17 17 17 16 16 16 15 15 14
21 22 21 18 16 13 11 11 11 9 8 9 10 11 12 13 14 15 15 15 16 16 16 16 16 17 18 19 19 20 20 20 20 20 20 20 20 21 21 21 21 21 21 20 20 19 18 17 17
22 23 23 21 18 15 14 13 13 13 14 14 15 16 16 17 18 18 18 19 19 19 19 19 20 21 22 23 23 24 24 24 24 24 24 23 24 24 25 26 26 25 25 25 24 23 22 21 19
22 24 24 21 20 18 18 17 17 17 19 20 19 20 21 22 21 21 21 21 21 21 21 22 23 25 26 27 28 28 28 28 28 28 28 28 28 28 29 29 30 30 29 29 28 27 27 25 24
24 24 23 23 23 22 21 21 21 21 24 25 24 24 25 26 25 23 22 22 22 23 24 25 26 27 28 29 31 31 33 33 33 33 33 33 32 32 33 33 33 34 34 34 33 33 32 31 29
27 25 24 25 27 27 26 25 25 25 27 28 28 28 28 28 27 25 24 23 24 25 26 27 28 28 29 31 32 33 35 36 36 37 37 37 37 37 37 36 36 37 37 38 38 38 38 37 35
30 29 28 30 30 30 29 28 28 29 30 31 31 31 30 30 28 27 26 26 27 28 29 29 29 29 29 31 32 33 36 37 37 38 38 39 40 40 39 39 38 39 40 41 41 41 42 41 40
34 33 33 34 33 33 32 32 32 33 33 33 33 32 31 31 29 27 28 29 30 30 30 31 30 30 30 31 31 32 33 35 37 38 38 38 39 41 41 41 41 42 42 43 43 43 44 43 42
35 36 36 37 36 36 35 35 35 34 35 34 33 32 31 30 28 28 29 31 31 31 31 31 31 32 31 31 32 33 33 34 35 37 37 37 38 39 40 40 41 42 43 44 44 44 45 43 41
33 35 36 37 38 37 38 37 37 35 35 34 33 31 29 27 27 28 30 32 33 33 33 34 34 33 32 32 33 34 34 35 35 36 37 38 38 39 40 41 41 42 43 44 45 46 46 44 42
30 32 34 35 36 36 37 36 35 34 33 32 31 29 28 27 29 31 32 33 33 33 34 35 34 34 34 34 35 35 35 36 36 37 37 38 39 40 41 42 43 44 45 45 46 46 46 45 44
27 29 31 32 33 33 34 34 33 33 32 31 30 29 30 31 33 34 34 33 32 33 34 34 32 33 34 36 36 36 36 36 36 37 37 37 38 38 39 40 42 43 44 44 44 45 45 44 44
23 25 27 29 29 30 32 32 31 32 33 32 32 33 34 35 35 34 32 30 29 30 32 33 34 34 34 36 36 37 37 37 37 38 38 38 39 39 39 39 40 40 41 41 41 42 42 42 41
20 22 24 26 26 27 29 30 30 33 34 35 35 35 35 33 31 29 27 26 27 28 30 32 33 33 33 34 35 35 35 36 36 37 38 39 40 40 40 40 40 40 40 39 39 39 39 39 38
19 20 21 22 22 24 26 28 29 30 31 31 30 29 27 24 23 23 24 25 26 27 28 29 30 30 30 31 31 31 32 33 34 36 37 38 39 40 41 41 41 41 41 40 39 38 37 37 36
15 17 17 17 18 19 21 22 22 23 23 23 23 22 21 21 22 23 23 25 26 26 27 28 28 29 28 28 28 29 31 32 33 35 36 37 38 39 40 40 41 42 42 41 40 39 38 37 36
12 12 13 13 13 14 17 17 17 18 19 20 20 21 21 21 22 23 23 23 24 25 26 27 27 27 27 27 28 29 31 32 34 35 36 36 37 37 38 39 40 41 41 41 41 40 39 39 38
11 11 12 12 12 13 16 17 17 18 18 19 19 20 20 20 21 21 22 23 24 25 26 27 27 28 29 30 31 31 32 34 35 36 36 37 37 36 36 37 38 39 40 41 41 41 40 40 40
13 12 12 14 14 15 16 17 18 18 18 18 18 19 19 20 21 22 23 25 26 27 29 30 31 32 33 34 35 35 36 36 37 37 38 38 38 36 36 35 35 36 37 39 39 40 40 40 40
12 12 13 15 17 16 16 18 19 19 19 20 21 22 23 24 25 26 28 29 31 32 34 35 36 36 37 38 38 38 39 39 38 39 39 39 38 37 36 34 34 34 35 36 37 38 39 39 39
12 12 14 16 18 20 20 21 20 22 24 25 26 27 28 30 31 31 33 35 37 38 39 40 40 40 40 41 41 41 41 40 40 40 39 39 38 38 36 34 33 32 32 33 34 35 35 35 35
14 15 17 20 21 23 25 28 26 27 28 30 31 32 33 34 36 37 39 40 42 43 44 44 45 45 45 44 44 44 43 41 41 40 40 39 38 38 36 34 32 30 30 29 30 31 31 31 30
Wind_Direction
146 140 129 102 89 76 80 82 78 73 70 74 77 77 74 72 71 66 62 58 50 40 31 22 18 17 18 21 22 22 24 25 27 29 31 32 30 27 25 22 20 20 21 22 24 27 30 32 33
172 172 180 140 102 106 103 95 82 71 63 59 54 53 55 56 52 49 48 46 40 32 23 15 13 14 13 13 12 12 12 14 15 17 19 20 19 17 15 13 12 11 11 13 15 17 20 24 27
201 206 217 243 322 124 126 117 101 92 76 59 44 32 30 28 24 17 17 18 16 12 6 3 4 6 6 5 4 2 2 3 5 6 6 6 5 4 5 5 5 4 3 4 5 6 7 10 15
222 226 228 240 267 246 175 143 130 114 86 62 40 17 8 6 2 355 354 355 355 350 346 347 349 351 352 353 353 352 353 354 355 355 354 352 353 353 356 358 360 359 358 356 356 356 355 355 357
230 233 232 233 244 240 240 209 147 128 81 51 33 16 0 354 350 344 343 344 344 339 335 336 338 337 338 338 340 340 342 344 344 343 342 342 343 345 348 351 353 354 353 351 350 348 346 343 341
233 238 237 236 240 242 252 267 282 23 33 15 9 4 352 349 346 343 341 341 338 335 333 334 334 332 330 328 328 328 328 330 331 331 331 331 332 333 336 338 340 343 344 344 343 341 340 336 333
232 239 242 240 241 247 262 272 292 322 1 357 355 351 344 344 342 339 340 343 344 342 340 339 337 334 329 324 321 319 318 318 319 320 320 319 319 319 320 323 326 328 330 331 332 330 328 326 323
229 238 243 245 248 256 270 283 294 302 334 346 349 349 344 341 335 333 330 331 333 335 336 335 334 332 329 324 318 315 312 311 311 310 310 308 307 307 308 310 311 313 315 316 317 317 315 314 313
226 233 242 247 251 259 274 289 296 291 284 295 314 323 330 329 327 323 319 317 316 314 314 315 314 315 314 313 311 308 306 305 304 304 303 302 301 300 301 301 302 302 304 305 305 305 304 303 302
223 228 238 245 250 257 276 293 297 294 293 296 300 306 313 319 319 318 314 312 309 307 304 301 298 299 300 299 299 298 298 297 296 296 296 295 294 294 294 295 295 295 295 295 296 295 295 293 292
225 228 239 245 249 257 269 282 290 295 298 299 302 305 310 311 311 310 308 306 304 303 300 295 293 293 292 290 288 288 289 290 289 289 289 288 287 287 288 289 289 289 289 288 287 287 286 284 282
229 232 241 250 255 259 266 274 283 291 294 296 301 305 306 305 304 305 305 303 300 298 296 295 293 293 291 287 285 284 283 283 283 282 281 281 280 281 281 281 282 283 282 282 281 280 278 276 274
234 235 242 250 257 260 262 268 277 285 289 293 297 299 299 299 301 302 301 299 298 296 294 294 293 292 290 288 286 284 282 281 280 279 278 276 275 275 275 276 276 277 277 276 276 275 273 270 267
239 239 242 245 249 255 260 266 273 278 282 287 290 291 292 294 296 298 298 298 298 298 296 294 292 290 288 287 288 285 284 281 279 277 275 274 272 271 271 271 272 273 273 272 273 272 271 268 265
242 243 244 246 249 254 260 265 270 274 278 281 283 285 287 288 291 295 297 300 302 301 299 296 293 293 290 290 290 288 286 286 285 282 279 276 273 269 268 268 268 270 270 271 271 271 271 269 267
240 243 246 251 254 257 261 264 268 272 276 278 280 282 283 285 288 293 298 302 302 301 299 296 294 294 294 293 293 293 293 291 289 288 285 281 278 275 271 270 269 270 271 272 273 274 273 275 272
239 243 247 252 257 260 262 264 267 270 273 275 277 278 280 282 288 294 299 301 301 300 298 296 297 297 296 297 298 298 297 293 290 289 287 284 281 279 277 275 274 273 273 274 276 276 276 278 278
239 243 248 252 256 260 262 264 266 267 269 271 273 274 277 282 289 294 297 298 299 298 297 297 298 299 301 302 301 301 299 297 294 291 288 284 281 279 278 276 275 274 273 274 275 277 278 280 282
240 243 247 251 254 257 259 262 264 265 266 267 268 271 276 281 286 291 293 295 295 296 297 296 298 301 304 305 305 304 303 301 297 294 290 286 283 280 278 277 275 273 272 273 273 275 276 279 281
240 244 247 249 251 252 254 256 260 262 264 266 268 272 276 281 286 288 290 291 292 294 297 300 303 305 307 308 308 308 307 304 300 296 291 288 285 282 280 278 277 276 275 274 274 274 275 276 278
244 247 249 250 252 254 255 255 257 261 264 267 271 275 279 283 286 286 286 287 290 294 297 299 303 307 309 310 311 311 309 307 304 299 295 290 286 282 280 277 276 276 276 275 275 274 274 274 275
254 255 257 258 258 258 260 260 259 262 266 270 273 277 281 284 283 281 281 284 289 293 296 298 301 305 309 311 311 311 310 309 307 304 300 294 290 285 281 278 276 275 275 275 275 274 274 273 273
263 265 266 266 266 265 263 264 267 268 270 274 276 278 279 278 276 278 281 285 289 293 295 297 299 302 305 308 310 312 313 312 311 308 304 298 293 288 283 278 275 273 273 273 273 273 272 272 271
272 274 275 274 272 270 271 272 272 273 275 274 274 274 274 273 275 279 283 286 287 289 291 293 296 299 303 307 310 313 315 315 314 313 310 305 299 293 287 281 277 273 272 271 271 271 271 271 271
281 281 282 282 280 278 279 280 280 278 275 274 272 272 273 275 276 278 279 279 280 283 287 290 294 298 304 309 313 315 316 317 317 316 314 311 306 300 293 286 280 275 272 271 270 270 269 269 270
281 284 286 286 284 280 282 283 282 279 279 278 277 276 277 277 275 275 274 275 278 283 287 292 297 302 307 311 314 316 318 318 317 317 316 314 311 305 298 291 284 278 274 272 270 269 269 269 269
280 280 281 284 285 282 281 281 279 284 286 286 284 283 283 282 280 279 279 281 284 288 293 297 302 306 308 311 313 314 316 316 316 317 316 316 314 309 303 296 288 281 277 273 271 269 269 268 268
288 286 284 287 292 291 285 281 281 283 289 290 288 288 288 287 286 285 287 289 292 295 299 302 304 307 308 309 310 311 312 313 314 316 316 316 316 312 306 300 294 287 281 276 273 270 268 267 266
300 296 293 293 295 297 296 291 294 295 295 293 291 291 291 290 290 290 292 294 296 299 301 302 303 304 305 306 307 308 308 310 311 313 315 315 315 314 310 305 299 293 286 281 276 272 269 267 266
305 303 300 298 299 298 299 298 299 297 296 294 293 291 291 290 290 292 294 295 297 298 300 300 301 302 303 304 305 305 305 306 307 309 312 313 314 314 312 308 303 298 291 285 280 275 269 266 263